STARLINK-1292, 45394

Orbit data source: Space-Track

STARLINK-1292, 45394 is a payload satellite owned by SpaceX/Seattle (US) in LEO that was launched on Wed, 18 Mar 2020 UTC via an FALCON 9 launch vehicle from the Air Force Eastern Test Range (AFETR). Payloads include a variety of satellites, spacecraft, and rockets equipped with specific instruments for various scientific and technological missions. These include communications satellites like Starlink; space stations such as the ISS; scientific satellites like the Hubble; Earth observation satellites from companies like Planet Labs, Umbra, and HawkEye 360; GPS; miniature CubeSats for education and research; and military/defense satellites.

Loading next visibility...
STARLINK-1292 details
Identifier
45394, 2020-019AL
Orbit
LEO
Last TLE update7 hours ago
Origin
Flag of USSpaceX/Seattle (US)
ManufacturerSpaceX/Seattle
MissionOperational Commercial Communications
Bus & MotorSTARLINK, Unknown motor
Mass260 kg wet, ~248 kg dry
Launch date (UTC)
2020-03-18 (5 years ago)
Launch vehicle
FALCON 9
Launch site
Air Force Eastern Test Range (AFETR)
Object type
Payload
Rocket body
Debris
Shape & HBRBox + 1 Pan, 8.86 m
Radar Cross Section13.562 m², Large (>1 m²)

Expand to show TLE details & history

TLE from 7 hours ago
0 STARLINK-1292
1 45394U 20019AL  24361.14082941  .00025288  00000-0  17087-2 0  9992
2 45394  53.0557 315.3491 0001579  83.2811 276.8358 15.06438602263648
Epoch: 2024-12-26T03:22Z
Definitive object data (Epoch: 2024-12-26T03:22:47.661Z)
Latitude0.00003°
Longitude169.52604°
Altitude547.843 km
Speed7.589 km/s
True Right ascension21h 01m 23s
True Declination0° 00' 00"
Sunlit
Object was in daylight at TLE epoch
Visualization TLE readout
Latitude27.15025°
Longitude-34.33974°
Altitude547.775 km
Speed7.592 km/s
Apparent Right ascension03h 55m 54s
Apparent Declination-14° 47' 46"
Sunlit
Object is in full shadow
Visualization observer readout
Local Sidereal Time09:44:38
Azimuth256.807° W
Elevation-7.32°
Doppler factor1
Orbital elements
Apogee altitude548.457 km
Perigee altitude546.27 km
Semi-major axis6,925.501 km
Eccentricity0.0001579
Inclination53.0557°
RAAN315.3491°
Arg. of periapsis83.2811°
True anomaly276.81783°
Mean anomaly276.8358°
Eccentric anomaly276.82682°
Mean motion3.76588 °/min
BSTAR0.0017087
Orbital period95.6 mins
Loading maneuver chart data...
Loading historical data...
Loading historical data...
Loading historical data...
Loading historical data...
Loading historical data...
Loading historical data...
Loading historical data...

STARLINK-1292 Visibility forecast

Observer location: undefined°, undefined

Span
Click to sort rows by Start time (UTC) header in descending order
Start Az.
Max El. time (UTC)
Max El. Az.
Max El.
End time (UTC)
End Az.
4 mins2024-12-26 22:38:27.669Z163.903° S2024-12-26 22:40:27.669Z130.128° SE17.694°2024-12-26 22:42:27.669Z94.67° ESE
6 mins2024-12-27 00:17:27.669Z249.778° W2024-12-27 00:19:27.669Z300.316° NW40.413°2024-12-27 00:23:27.669Z43.555° NE
4 mins2024-12-27 01:58:27.669Z316.486° NNW2024-12-27 01:59:27.669Z333.68° NNW16.535°2024-12-27 02:02:27.669Z23.059° NE
5 mins2024-12-27 05:19:27.669Z343.298° N2024-12-27 05:21:27.669Z25.219° NE23.67°2024-12-27 05:24:27.669Z79.638° E
6 mins2024-12-27 06:58:27.669Z299.276° NW2024-12-27 07:01:27.669Z206.617° SW40.626°2024-12-27 07:04:27.669Z146.369° SSE
|